logo
App data

Space Hotel

One of your ship's engines breaks down while on a trade route. You are forced to make a landing in the nearest star system Merope, constellation Pleiades. Your task is to find a way to the main hangar and escape on the ship of those who remained there forever.
Store | Hub | SteamDB
Developer: NHLislive Publisher: Publisher: Man Hockey
Genre: Indie
Languages: English
Tags: Indie (21), Horror (13), Stealth (12)
Category: Single-player, Steam Trading Cards
Release date: Jan 4, 2017
Price: $1.99
Owners: 0 .. 20,000
Followers: 242
YouTube stats: 11 views and 0 comments for videos uploaded last week, 1 new videos uploaded yesterday.
Playtime total: 03:05 (average) 03:53 (median)

Steam Spy is still in beta, so expect major bugs.

Owners data:

Access restricted.

This feature is only available to users with special access rights. Sorry.

If you want to proceed, you need to register or log in first and then back Steam Spy on Patreon. Look for Indie or Pro pledge.

Don't forget to use the same email as on Steam Spy!

Audience in 2 weeks:

Access restricted.

This feature is only available to users with special access rights. Sorry.

If you want to proceed, you need to register or log in first and then back Steam Spy on Patreon. Look for Indie or Pro pledge.

Don't forget to use the same email as on Steam Spy!

Peak daily concurrent players:

CCU data courtesy of SteamDB. Used with permission.

Hourly concurrent players:

YouTube:

The views data is based on top 50 videos uploaded last week. Actual number of views might be more than the number shown.

The displayed number of videos uploaded yesterday is limited to 50, so if there were more videos uploaded, the number will still show 50.

If the game has commonly used word as its name (like "FEAR" or "Volume") its number of Youtube views might be wrong.

Games similar to this one:

# Game Release date
Price
Score rank
(Userscore / Metascore)
Owners
Players
Playtime (Median)
1 Night Blights Apr 15, 2016 $4.99100% (100%)0 .. 20,0000%00:00 (00:00)
2 Carrie's Order Up! Sep 13, 2016 $2.9997% (97%)0 .. 20,0000%00:00 (00:00)
3 Luxor Evolved Mar 1, 2012 $9.9997% (97%)50,000 .. 100,0000%00:00 (00:00)
4 Hustle Cat Mar 16, 2016 $19.9997% (97%)0 .. 20,0000%00:00 (00:00)
5 Beat Da Beat Mar 10, 2016 $1.9993% (95%)0 .. 20,0000%00:00 (00:00)
6 Chip's Challenge 2 May 28, 2015 $4.9990% (94%)20,000 .. 50,0005.88%04:28 (01:29)
7 [the Sequence] Mar 30, 2016 $1.9990% (94%)0 .. 20,0000%00:00 (00:00)
8 Think To Die 3 Mar 27, 2017 $4.99N/A (N/A)0 .. 20,0000%00:00 (00:00)
9 12 Labours of Hercules Mar 23, 2015 $2.9987% (93%)100,000 .. 200,0000.36%00:14 (00:04)
10 Girls Like Robots Feb 14, 2014 $6.9987% (93%)100,000 .. 200,0000%00:00 (00:00)
11 Tennis in the Face Nov 18, 2015 $4.9987% (93%)0 .. 20,0000%00:00 (00:00)
12 Swapperoo Dec 18, 2015 $4.99N/A (N/A)0 .. 20,0000%00:00 (00:00)
13 SquareCells Dec 7, 2015 $2.9983% (92%)20,000 .. 50,0002.78%06:57 (02:19)
14 Frog Climbers Oct 6, 2016 $6.9983% (92%)50,000 .. 100,0000%00:00 (00:00)
15 Grapple Mar 9, 2015 $7.9983% (92%)20,000 .. 50,0000%00:00 (00:00)
16 Tribloos 2 Jan 12, 2013 $4.9979% (91%)100,000 .. 200,0001.66%04:20 (03:38)
17 Earthtongue Apr 27, 2015 $4.9979% (91%)0 .. 20,0000%00:00 (00:00)
18 The Jackbox Party Pack Nov 26, 2014 $24.9979% (91%)200,000 .. 500,0003.08%00:18 (00:11)
19 Koala Kids Jun 22, 2015 $0.9979% (91%)20,000 .. 50,0000%00:00 (00:00)
20 On Rusty Trails Jun 13, 2016 $12.9976% (90%/77%)0 .. 20,0000.99%00:32 (00:10)
21 12 Labours of Hercules V: Kids of Hellas (Platinum Edition) Jun 17, 2016 $2.9973% (89%)20,000 .. 50,0001.59%02:02 (00:40)
22 This Starry Midnight We Make Jun 1, 2015 $9.99N/A (N/A)0 .. 20,0000%00:00 (00:00)
23 Bob Was Hungry Aug 19, 2015 $9.9973% (89%)20,000 .. 50,0000%00:00 (00:00)
24 Griptape Backbone May 5, 2017 Free73% (89%)0 .. 20,0000%00:00 (00:00)
25 Clock Simulator Jul 20, 2016 $0.9973% (89%)20,000 .. 50,0004.35%00:32 (00:12)
26 Vampires: Guide Them to Safety! Oct 22, 2014 $4.99N/A (N/A)0 .. 20,0000%00:00 (00:00)
27 The Reject Demon: Toko Chapter 0 — Prelude May 9, 2015 $4.9973% (89%)0 .. 20,0000%00:00 (00:00)
28 Loot Hound Nov 17, 2015 $4.9973% (89%)0 .. 20,0000%00:00 (00:00)
29 Without Within 2 Nov 9, 2015 $4.9970% (88%)0 .. 20,0000%00:00 (00:00)
30 Forgotten, Not Lost - A Kinetic Novel Apr 2, 2016 $1.9970% (88%)20,000 .. 50,0004.63%04:40 (04:44)
31 Psycho Starship Rampage Sep 28, 2015 $9.9970% (88%)0 .. 20,0000%00:00 (00:00)
32 Thrillville: Off the Rails Oct 9, 2007 $9.9970% (88%/70%)20,000 .. 50,0000%00:00 (00:00)
33 Recursion Deluxe Feb 12, 2016 $4.9970% (88%)0 .. 20,0000%00:00 (00:00)
34 Darkarta: A Broken Heart's Quest Collector's Edition Mar 8, 2017 $5.9970% (88%)20,000 .. 50,0000%00:00 (00:00)
35 In Between Aug 21, 2015 $11.9970% (88%/68%)50,000 .. 100,0000.63%00:05 (00:01)
36 12 Labours of Hercules IV: Mother Nature (Platinum Edition) Dec 25, 2015 $2.9970% (88%)20,000 .. 50,0000%00:00 (00:00)
37 Cursed Sight Aug 3, 2015 $5.9968% (87%)0 .. 20,0000%00:00 (00:00)
38 Sophie's Curse Mar 16, 2016 $4.9965% (86%)20,000 .. 50,0000%00:00 (00:00)
39 Oozi: Earth Adventure Dec 5, 2013 $4.9965% (86%/66%)50,000 .. 100,0000%00:00 (00:00)
40 Army of Pixels Oct 29, 2015 $4.99N/A (N/A)0 .. 20,0000%00:00 (00:00)
41 Anode Oct 5, 2015 $3.9965% (86%)0 .. 20,0000%00:00 (00:00)
42 Asphyxia Aug 4, 2015 $5.9965% (86%)20,000 .. 50,0000%00:00 (00:00)
43 Alpha Runner Sep 2, 2015 $0.4965% (86%)50,000 .. 100,0000.93%01:06 (00:41)
44 BAD END Nov 25, 2015 $1.9962% (85%)20,000 .. 50,0002.08%01:00 (00:20)
45 Dead Man's Draw Feb 6, 2014 $6.9962% (85%)20,000 .. 50,0000%00:00 (00:00)
46 Magma Tsunami Jun 1, 2016 $0.9960% (84%)100,000 .. 200,0000%00:00 (00:00)
47 RePete Nov 1, 2015 $1.99N/A (N/A)0 .. 20,0000%00:00 (00:00)
48 Sentinel 4: Dark Star Aug 13, 2015 $6.99N/A (N/A)0 .. 20,0000%00:00 (00:00)
49 Governor of Poker 2 - Premium Edition Oct 11, 2010 $14.9960% (84%)20,000 .. 50,0000%00:00 (00:00)
50 Gridworld Dec 29, 2015 $0.9957% (83%)0 .. 20,0000%00:00 (00:00)
51 Cyto Jul 10, 2014 $3.9957% (83%)20,000 .. 50,0000%00:00 (00:00)
52 Cute Things Dying Violently Sep 2, 2015 $2.9957% (83%)0 .. 20,0000%00:00 (00:00)
53 Job the Leprechaun Jul 31, 2015 $0.4955% (82%)20,000 .. 50,0000%00:00 (00:00)
54 Air Missions: HIND Jun 14, 2017 $16.9955% (82%)0 .. 20,0000%00:00 (00:00)
55 Steam and Metal Feb 9, 2015 $4.99N/A (N/A)0 .. 20,0000%00:00 (00:00)
56 Collisions Jul 28, 2015 $3.9953% (81%)20,000 .. 50,0000%00:00 (00:00)
57 Archimedes Oct 6, 2016 $2.9953% (81%)50,000 .. 100,0000%00:00 (00:00)
58 Star Sky - ブルームーン Oct 23, 2015 $0.9953% (81%)0 .. 20,0000%00:00 (00:00)
59 Stay Alight Mar 2, 2015 $3.9953% (81%)20,000 .. 50,0000%00:00 (00:00)
60 Space Drifters 2D Mar 28, 2016 $0.99N/A (N/A)0 .. 20,0000%00:00 (00:00)
61 Rescue Team 5 Sep 30, 2015 $3.9950% (80%)20,000 .. 50,0000%00:00 (00:00)
62 Terraform May 8, 2015 $2.99N/A (N/A)0 .. 20,0000%00:00 (00:00)
63 Egg Returns Home May 5, 2015 $1.9948% (79%)20,000 .. 50,0000%00:00 (00:00)
64 hackmud Sep 22, 2016 $19.9948% (79%)0 .. 20,00011.11%01:41 (00:33)
65 The Last NightMary - A Lenda do Cabeça de Cuia Nov 2, 2015 $0.5148% (79%)50,000 .. 100,0000.95%02:02 (00:40)
66 Farm for your Life Jun 5, 2013 $9.9948% (79%)50,000 .. 100,0000%00:00 (00:00)
67 Fate Tectonics Sep 9, 2015 $9.9948% (79%)0 .. 20,0000%00:00 (00:00)
68 GamersGoMakers Aug 8, 2014 $9.9948% (79%)0 .. 20,0000%00:00 (00:00)
69 Particulars Nov 19, 2014 $5.9946% (78%/74%)20,000 .. 50,0000%00:00 (00:00)
70 Optika Aug 26, 2016 $4.9946% (78%)20,000 .. 50,0000%00:00 (00:00)
71 The Survey Oct 27, 2016 $4.9946% (78%)0 .. 20,0005%01:33 (00:31)
72 Paranormal State: Poison Spring Nov 26, 2013 $9.9946% (78%)20,000 .. 50,0000%00:00 (00:00)
73 SinaRun Oct 26, 2015 $2.9944% (77%)0 .. 20,0000%00:00 (00:00)
74 Neon Prism Nov 18, 2016 $4.9944% (77%)50,000 .. 100,0000.36%00:46 (00:15)
75 The Deletion Jul 30, 2015 $1.9943% (76%)20,000 .. 50,0000%00:00 (00:00)
76 Pixel Puzzles 2: Birds Feb 20, 2015 $1.4943% (76%)100,000 .. 200,0003.05%04:01 (05:04)
77 Caravanserail Feb 26, 2016 $2.99N/A (N/A)0 .. 20,0000%00:00 (00:00)
78 Beeftacular Aug 26, 2016 $2.9941% (75%)0 .. 20,0000%00:00 (00:00)
79 Kombine Oct 14, 2016 $0.9941% (75%)0 .. 20,0000%00:00 (00:00)
80 Where are my Internets? Dec 16, 2016 $2.9941% (75%)0 .. 20,0000%00:00 (00:00)
81 Turbo Pug 3D Sep 20, 2016 $1.9939% (74%)200,000 .. 500,0000.24%01:45 (01:10)
82 GO AWAY, THERE'S KUMIS OVER THERE! Oct 28, 2016 $0.9939% (74%)50,000 .. 100,0000%00:00 (00:00)
83 Totally Unbalanced Jul 29, 2016 $2.9939% (74%)0 .. 20,0004%03:55 (01:18)
84 Idle Evolution Apr 3, 2017 $3.7437% (73%)0 .. 20,0000%00:00 (00:00)
85 Western FPS Mar 13, 2017 $0.6237% (73%)100,000 .. 200,0000.31%00:22 (00:07)
86 Pester Jan 25, 2013 $0.9935% (72%)100,000 .. 200,0001.46%04:09 (04:46)
87 ConflictCraft Dec 8, 2016 $2.99N/A (N/A)20,000 .. 50,0000%00:00 (00:00)
88 MOAI 2: Path to Another World Apr 11, 2015 $7.99N/A (N/A)0 .. 20,00010%05:33 (01:51)
89 Laserlife Sep 22, 2015 $14.9934% (71%)0 .. 20,0000%00:00 (00:00)
90 Axel & Pixel Oct 6, 2010 $4.99N/A (N/A)20,000 .. 50,0000%00:00 (00:00)
91 Lift It Jan 20, 2017 $4.9932% (70%)20,000 .. 50,0000.53%07:39 (02:33)
92 Wanda - A Beautiful Apocalypse Jun 3, 2016 $9.9931% (69%)50,000 .. 100,0002.27%03:31 (02:46)
93 Sinister City Oct 18, 2014 $0.9929% (68%)100,000 .. 200,0000%00:00 (00:00)
94 Love in the Glen Jun 9, 2016 $5.99N/A (N/A)20,000 .. 50,0001.85%03:20 (01:06)
95 1931: Scheherazade at the Library of Pergamum Mar 26, 2015 $24.9929% (68%)0 .. 20,0000%00:00 (00:00)
96 Zipple World Jan 19, 2016 $4.99N/A (N/A)0 .. 20,0003.03%00:01 (00:00)
97 Marble Duel Nov 12, 2015 $4.9928% (67%)100,000 .. 200,0003.48%03:21 (03:41)
98 Fergus The Fly Feb 1, 2017 $0.9928% (67%)200,000 .. 500,0000.11%04:32 (01:30)
99 Mind Games Mar 4, 2016 $2.9928% (67%)0 .. 20,0000%00:00 (00:00)
100 One Last Chance Apr 7, 2016 $3.9928% (67%)20,000 .. 50,0001.39%01:31 (00:30)
101 Racecraft Mar 4, 2016 $19.9928% (67%)20,000 .. 50,0000%00:00 (00:00)
102 Broken Dreams Feb 19, 2016 $1.9926% (66%)200,000 .. 500,0000.09%02:04 (00:41)
103 Herding Dog Dec 25, 2015 $2.99N/A (N/A)0 .. 20,0000%00:00 (00:00)
104 Alter World May 29, 2015 $1.9925% (65%)100,000 .. 200,0000.29%05:15 (01:45)
105 Winexy Jan 13, 2017 $0.9924% (64%)20,000 .. 50,0001.11%02:30 (00:50)
106 XCavalypse Jun 6, 2016 $5.99N/A (N/A)0 .. 20,0000%00:00 (00:00)
107 FBI MANIA Jan 31, 2017 $0.99N/A (N/A)50,000 .. 100,0000%00:00 (00:00)
108 Highborn Feb 19, 2013 $1.99N/A (N/A)0 .. 20,0000%00:00 (00:00)
109 Won't You Be My Laser? Sep 2, 2016 $0.99N/A (N/A)0 .. 20,0000%00:00 (00:00)
110 Power of Love Jul 21, 2015 $4.9920% (61%)20,000 .. 50,0001.47%03:37 (01:30)
111 Goodnight Butcher Dec 18, 2015 $1.99N/A (N/A)0 .. 20,0000%00:00 (00:00)
112 Bloop Reloaded Feb 6, 2015 $9.9920% (61%)100,000 .. 200,0000.57%02:51 (01:53)
113 Football Blitz Jan 4, 2017 $3.99N/A (N/A)0 .. 20,0000%00:00 (00:00)
114 Star Chronicles: Delta Quadrant Jul 7, 2015 $0.9917% (58%)200,000 .. 500,0000.25%01:03 (00:41)
115 Dance Magic Feb 15, 2016 $9.99N/A (N/A)0 .. 20,0000%00:00 (00:00)
116 Bunny & Piggy Dec 1, 2016 $0.4916% (57%)50,000 .. 100,0000.69%04:33 (01:31)
117 Way of Gold and Steel Aug 17, 2015 $8.9915% (56%)0 .. 20,0000%00:00 (00:00)
118 King's Guard TD Jun 8, 2016 $0.9914% (54%)100,000 .. 200,0001.08%00:58 (00:42)
119 Wildlife Park 2 - Dino World Mar 30, 2012 $3.99N/A (N/A)20,000 .. 50,0000%00:00 (00:00)
120 Backgammon Blitz Nov 12, 2015 $3.9914% (54%)0 .. 20,0000%00:00 (00:00)
121 Drizzlepath Mar 12, 2015 $1.4913% (53%)20,000 .. 50,0000%00:00 (00:00)
122 Sky to Fly: Soulless Leviathan Jul 22, 2016 $3.9913% (53%)0 .. 20,0004.76%04:34 (01:31)
123 Reptilian Rebellion Aug 8, 2016 $0.9913% (53%)20,000 .. 50,0000%00:00 (00:00)
124 Color Syndrome Jun 20, 2016 $0.9913% (52%)20,000 .. 50,0000.98%01:05 (00:43)
125 Quantum Rush Champions Dec 4, 2014 $2.9911% (50%)20,000 .. 50,0000%00:00 (00:00)
126 Rage Runner May 16, 2014 $4.99N/A (N/A)20,000 .. 50,0000%00:00 (00:00)
127 Astro Emporia Feb 2, 2015 $0.9911% (50%)0 .. 20,0001.3%08:30 (02:50)
128 Autumn Sep 23, 2014 $2.999% (46%)50,000 .. 100,0000%00:00 (00:00)
129 Melting Hearts: Our Love Will Grow 2 Apr 29, 2016 $4.999% (46%)0 .. 20,0000%00:00 (00:00)
130 Ninja Stealth 2 Jan 30, 2017 $1.998% (45%)20,000 .. 50,0002.99%02:03 (01:22)
131 Burst Mar 14, 2016 $0.49N/A (N/A)20,000 .. 50,0000%00:00 (00:00)
132 iREC Jan 16, 2017 Free7% (41%)50,000 .. 100,0000.99%197:14 (65:44)
133 Streets of Chaos Jan 23, 2015 $0.996% (40%)100,000 .. 200,0000.23%02:27 (00:49)
134 European Ship Simulator Nov 4, 2016 $4.996% (38%)20,000 .. 50,0006.25%00:44 (00:14)
135 Hide and Secret Treasure of the Ages Mar 15, 2007 $2.99N/A (N/A)0 .. 20,0000%00:00 (00:00)
136 Labyrinth Simulator Sep 21, 2015 $4.994% (31%)0 .. 20,0000%00:00 (00:00)
137 Industry Transporters Aug 31, 2015 $9.99N/A (N/A)0 .. 20,0000%00:00 (00:00)
138 Robot vs Birds Zombies Jun 1, 2013 $0.994% (31%)0 .. 20,0000%00:00 (00:00)
139 Hyposphere May 5, 2016 $2.993% (28%)100,000 .. 200,0000%00:00 (00:00)
140 Cyber Team Manager Jan 8, 2016 $4.992% (20%)0 .. 20,0000%00:00 (00:00)
141 One way to exit Mar 12, 2016 $1.99N/A (N/A)200,000 .. 500,0000%00:00 (00:00)

Owners of this game also own:

Access restricted.

This feature is only available to users with special access rights. Sorry.

If you want to proceed, you need to register or log in first and then back Steam Spy on Patreon. Look for Indie or Pro pledge.

Don't forget to use the same email as on Steam Spy!

Playtime distribution:

Access restricted.

This feature is only available to users with special access rights. Sorry.

If you want to proceed, you need to register or log in first and then back Steam Spy on Patreon. Look for Indie or Pro pledge.

Don't forget to use the same email as on Steam Spy!

Playtime (2 weeks):

Access restricted.

This feature is only available to users with special access rights. Sorry.

If you want to proceed, you need to register or log in first and then back Steam Spy on Patreon. Look for Indie or Pro pledge.

Don't forget to use the same email as on Steam Spy!

User reviews:

Login required.

Please register or log in to see this information.